Tracking 28341 objects as of 6-Dec-2023
HD Live streaming from Space Station
objects crossing your sky now

STARLINK-5467

Track STARLINK-5467 now!
10-day predictions
STARLINK-5467 is classified as:


NORAD ID: 55660
Int'l Code: 2023-021AJ
Perigee: 577.1 km
Apogee: 581.3 km
Inclination: 70.0 °
Period: 96.1 minutes
Semi major axis: 6950 km
RCS: Unknown
Launch date: February 17, 2023
Source: United States (US)
Launch site: AIR FORCE WESTERN TEST RANGE (AFWTR)
Your satellite tracking list
Your tracking list is empty




NASA's NSSDC Master Catalog

Two Line Element Set (TLE):
1 55660U 23021AJ  23339.69500628  .00005759  00000-0  49006-3 0  9994
2 55660  70.0006  84.7543 0003007 259.5321 100.5499 14.98327614 45704
Source of the keplerian elements: AFSPC